This demonstration page uses our WeatherBlox Daily Observations layout. Learn more.

Left ArrowRight Arrow

39.51506, -84.39828

Hourly Observations for December 8, 2018

Temp ( °F °C ) Dew Point ( °F °C ) Humidity (%) Winds ( mph kmh ) Pressure ( in mb ) Visibility ( mi km ) Precip ( " mm )
12:15 am 00:15 Clear 23 -4.9 17 -8.2 78 78 N N/A 30.56 1035 10 16 N/A
12:35 am 00:35 Clear 24 -4.7 18 -7.9 79 79 NW 7 11 30.56 1035 10 16 N/A
12:55 am 00:55 Clear 23 -4.8 18 -7.9 79 79 NW 7 11 30.59 1036 10 16 N/A
1:15 am 01:15 Clear 23 -4.8 18 -7.8 80 80 NW 7 11 30.59 1036 10 16 N/A
1:35 am 01:35 Clear 23 -4.8 18 -7.8 80 80 NNW 6 9 30.59 1036 10 16 N/A
1:55 am 01:55 Clear 23 -5.1 18 -8 80 80 NNW 5 7 30.59 1036 10 16 N/A
2:15 am 02:15 Clear 23 -5.2 17 -8.2 80 80 NNW 3 6 30.59 1036 10 16 N/A
2:35 am 02:35 Clear 22 -5.4 17 -8.2 81 81 NNW 3 6 30.59 1036 10 16 N/A
2:55 am 02:55 Clear 22 -5.7 17 -8.4 81 81 N N/A 30.59 1036 10 16 N/A
3:15 am 03:15 Clear 21 -5.9 17 -8.5 82 82 NNW 3 6 30.59 1036 10 16 N/A
3:35 am 03:35 Clear 21 -5.9 17 -8.4 83 83 N N/A 30.59 1036 10 16 N/A
3:55 am 03:55 Clear 21 -6 17 -8.5 83 83 N N/A 30.59 1036 10 16 N/A
4:15 am 04:15 Cloudy 22 -5.6 17 -8.1 83 83 NNW 3 6 30.59 1036 10 16 N/A
4:35 am 04:35 Partly Cloudy 22 -5.5 17 -8.4 80 80 NNW 5 7 30.59 1036 10 16 N/A
4:55 am 04:55 Clear 22 -5.6 15 -9.3 75 75 NNW 6 9 30.62 1037 10 16 N/A
5:15 am 05:15 Clear 21 -5.9 15 -9.7 75 75 N 3 6 30.62 1037 10 16 N/A
5:35 am 05:35 Clear 21 -6.1 14 -9.8 75 75 N 3 6 30.62 1037 10 16 N/A
5:55 am 05:55 Clear 21 -6.2 14 -9.8 76 76 N 3 6 30.62 1037 10 16 N/A
6:15 am 06:15 Clear 21 -6.3 14 -9.8 77 77 N N/A 30.62 1037 10 16 N/A
6:35 am 06:35 Clear 21 -6.2 15 -9.7 77 77 N N/A 30.65 1038 10 16 N/A
6:55 am 06:55 Clear 21 -6.2 15 -9.7 77 77 N N/A 30.65 1038 10 16 N/A
7:15 am 07:15 Clear 20 -6.5 15 -9.3 81 81 N N/A 30.68 1039 10 16 N/A
7:35 am 07:35 Clear 19 -7 16 -8.9 86 86 N N/A 30.68 1039 10 16 N/A
7:55 am 07:55 Sunny 19 -7.4 16 -9.1 88 88 N N/A 30.68 1039 10 16 N/A
8:15 am 08:15 Sunny 18 -7.9 15 -9.5 88 88 N N/A 30.71 1040 10 16 N/A
8:35 am 08:35 Sunny 18 -7.6 15 -9.2 88 88 N N/A 30.71 1040 10 16 N/A
8:55 am 08:55 Sunny 20 -6.7 17 -8.5 87 87 N N/A 30.71 1040 10 16 N/A
9:15 am 09:15 Sunny 21 -5.9 17 -8.5 82 82 N N/A 30.71 1040 10 16 N/A
9:35 am 09:35 Sunny 23 -5.1 15 -9.6 71 71 E 5 7 30.71 1040 10 16 N/A
9:55 am 09:55 Sunny 24 -4.5 15 -9.7 67 67 ENE 7 11 30.71 1040 10 16 N/A
10:15 am 10:15 Sunny 24 -4.4 15 -9.5 68 68 NE 10 17 30.71 1040 10 16 N/A
10:35 am 10:35 Sunny 24 -4.3 14 -9.8 66 66 NE 14 22 30.68 1039 10 16 N/A
10:55 am 10:55 Sunny 25 -4 14 -9.9 64 64 NE 13 20 30.68 1039 10 16 N/A
11:15 am 11:15 Sunny 25 -3.8 14 -10 62 62 NE 12 19 30.71 1040 10 16 N/A
11:35 am 11:35 Sunny 26 -3.4 15 -9.7 62 62 NE 12 19 30.68 1039 10 16 N/A
11:55 am 11:55 Sunny 26 -3.1 15 -9.5 62 62 NNE 10 17 30.65 1038 10 16 N/A
12:15 pm 12:15 Sunny 27 -3 14 -9.8 60 60 NNE 10 17 30.65 1038 10 16 N/A
12:35 pm 12:35 Sunny 27 -2.8 14 -9.8 59 59 NE 9 15 30.65 1038 10 16 N/A
12:55 pm 12:55 Sunny 28 -2.5 14 -9.8 58 58 ENE 10 17 30.62 1037 10 16 N/A
1:15 pm 13:15 Sunny 27 -2.6 14 -9.9 58 58 NE 9 15 30.62 1037 10 16 N/A
1:35 pm 13:35 Sunny 28 -2.4 14 -9.8 57 57 NE 7 11 30.62 1037 10 16 N/A
1:55 pm 13:55 Sunny 28 -2.5 14 -10.1 56 56 NE 7 11 30.62 1037 10 16 N/A
2:15 pm 14:15 Sunny 28 -2.4 14 -10.2 55 55 ENE 6 9 30.62 1037 10 16 N/A
2:35 pm 14:35 Sunny 28 -2.4 14 -10.2 55 55 NE 6 9 30.62 1037 10 16 N/A
2:55 pm 14:55 Sunny 28 -2.4 14 -9.8 57 57 NE 7 11 30.62 1037 10 16 N/A
3:15 pm 15:15 Sunny 28 -2.4 14 -9.8 57 57 NE 6 9 30.56 1035 10 16 N/A
3:35 pm 15:35 Sunny 28 -2.3 15 -9.5 58 58 NE 8 13 30.62 1037 10 16 N/A
3:55 pm 15:55 Sunny 28 -2.5 15 -9.7 58 58 NE 7 11 30.59 1036 10 16 N/A
4:15 pm 16:15 Sunny 28 -2.5 15 -9.2 60 60 NE 8 13 30.62 1037 10 16 N/A
4:35 pm 16:35 Sunny 27 -2.7 15 -9.4 60 60 NE 6 9 30.62 1037 10 16 N/A
4:55 pm 16:55 Sunny 27 -2.9 15 -9.4 61 61 NE 9 15 30.59 1036 10 16 N/A
5:15 pm 17:15 Clear 26 -3.2 15 -9.3 63 63 NE 8 13 30.59 1036 10 16 N/A
5:35 pm 17:35 Clear 26 -3.3 16 -9.1 65 65 NE 8 13 30.59 1036 10 16 N/A
5:55 pm 17:55 Clear 26 -3.5 16 -9 66 66 ENE 7 11 30.62 1037 10 16 N/A
6:15 pm 18:15 Clear 26 -3.5 16 -8.9 67 67 NE 7 11 30.59 1036 10 16 N/A
6:35 pm 18:35 Clear 26 -3.6 17 -8.5 69 69 NE 6 9 30.59 1036 10 16 N/A
6:55 pm 18:55 Clear 26 -3.6 16 -8.7 68 68 NE 7 11 30.59 1036 10 16 N/A
7:15 pm 19:15 Clear 25 -3.7 16 -8.7 69 69 ENE 8 13 30.59 1036 10 16 N/A
7:35 pm 19:35 Clear 25 -3.7 17 -8.4 70 70 ENE 7 11 30.59 1036 10 16 N/A
7:55 pm 19:55 Clear 25 -3.7 17 -8.4 70 70 NE 7 11 30.59 1036 10 16 N/A
8:15 pm 20:15 Clear 25 -3.8 17 -8.4 71 71 NE 6 9 30.59 1036 10 16 N/A
8:35 pm 20:35 Clear 25 -3.9 17 -8.5 71 71 NE 9 15 30.59 1036 10 16 N/A
8:55 pm 20:55 Clear 25 -3.9 17 -8.3 72 72 NE 7 11 30.59 1036 10 16 N/A
9:15 pm 21:15 Clear 25 -3.9 17 -8.4 71 71 NE 8 13 30.56 1035 10 16 N/A
9:35 pm 21:35 Clear 25 -3.9 17 -8.4 71 71 NNE 10 17 30.56 1035 10 16 N/A
9:55 pm 21:55 Clear 25 -4 17 -8.4 72 72 NE 9 15 30.53 1034 10 16 N/A
10:15 pm 22:15 Clear 25 -4 17 -8.4 72 72 NE 10 17 30.53 1034 10 16 N/A
10:35 pm 22:35 Clear 25 -4.1 17 -8.3 73 73 NE 8 13 30.53 1034 10 16 N/A
10:55 pm 22:55 Clear 25 -4.1 17 -8.3 73 73 NE 7 11 30.53 1034 10 16 N/A
11:15 pm 23:15 Clear 25 -4.1 17 -8.3 73 73 NE 7 11 30.53 1034 10 16 N/A
11:35 pm 23:35 Clear 24 -4.3 17 -8.2 75 75 ENE 7 11 30.50 1033 10 16 N/A
11:55 pm 23:55 Clear 25 -4.1 17 -8.2 73 73 NE 8 13 30.50 1033 10 16 N/A

Powered by AerisWeather